Terminal Aerodrome Forecast
Issued by NWS

Home | Current Version | Previous Version | Text Only | Print | Product List | Glossary On
Versions: 1 2 3 4 5 6 7 8 9 10 11 12 13 14 15 16 17 18 19 20 21 22 23
000
FTUS44 KLZK 211400 AAA
TAFPBF
TAF AMD
KPBF 211416Z 2114/2212 12006KT P6SM SCT060
      TEMPO 2114/2116 4SM BR
     FM220300 15006KT P6SM SCT025 BKN050
      TEMPO 2208/2212 4SM BR=

USA.gov is the U.S. government's official web portal to all federal, state and local government web resources and services.